Homer, AK

1:24 PM AKDT on March 27, 2017 (GMT -0800)
Homer

Weather History for PAHO - January, 2014

Change the Weather History Date:

Friday, January 17, 2014

  Actual Average Record
Temperature  
Mean Temperature 45 °F -  
Max Temperature 48 °F 29 °F 48 °F (2014)
Min Temperature 42 °F 19 °F -14 °F (1947)
Degree Days  
Heating Degree Days 20    
Moisture  
Dew Point 35 °F    
Average Humidity 69    
Maximum Humidity 82    
Minimum Humidity 56    
Precipitation  
Precipitation 0.82 in - - ()
Sea Level Pressure  
Sea Level Pressure 29.13 in    
Wind  
Wind Speed 18 mph (East)    
Max Wind Speed 29 mph    
Max Gust Speed 51 mph    
Visibility 9 miles    
Events Rain    
Averages and records for this station are not official NWS values.
T = Trace of Precipitation, MM = Missing Value Source: NWS Daily Summary

Daily Weather History Graph

Daily Weather History Graph

Search for Another Location

Airport or City:

Trip Planner

Search our weather history database for the weather conditions in past years. The results will help you decide how hot, cold, wet, or windy it might be!

Date:

Astronomy

Jan. 17, 2014 Rise Set
Actual Time 9:47 AM AKST 4:45 PM AKST
Civil Twilight 8:56 AM AKST 5:36 PM AKST
Nautical Twilight 8:03 AM AKST 6:29 PM AKST
Astronomical Twilight 7:13 AM AKST 7:19 PM AKST
Moon 7:24 PM AKST (1/17) 9:42 AM AKST (1/17)
Length of Visible Light 8h 40m
Length of Day
6h 58m
Full, 98% of the Moon is Illuminated
Jan 17
Full
Jan 23
Last Quarter
Jan 30
New
Feb 6
First Quarter
Feb 14
Full

Hourly Weather History & Observations

Time (AKST) Temp. Windchill Dew Point Humidity Pressure Visibility Wind Dir Wind Speed Gust Speed Precip Events Conditions
12:53 AM 46.9 °F - 32.0 °F 56% 29.39 in 10.0 mi East 24.2 mph 31.1 mph N/A   Scattered Clouds
1:53 AM 48.0 °F - 33.1 °F 56% 29.35 in 10.0 mi ENE 25.3 mph 34.5 mph 0.00 in Rain Light Rain
2:53 AM 45.0 °F 36.9 °F 35.1 °F 68% 29.26 in 10.0 mi ENE 20.7 mph 32.2 mph 0.01 in Rain Light Rain
3:53 AM 46.9 °F - 36.0 °F 66% 29.23 in 10.0 mi East 17.3 mph 27.6 mph 0.04 in Rain Light Rain
4:53 AM 45.0 °F 35.8 °F 39.0 °F 80% 29.17 in 6.0 mi ENE 26.5 mph 42.6 mph 0.11 in Rain Rain
5:53 AM 46.9 °F - 39.0 °F 74% 29.10 in 10.0 mi ENE 28.8 mph 50.6 mph 0.04 in   Overcast
7:53 AM 46.0 °F 38.8 °F 39.0 °F 76% 29.09 in 5.0 mi East 18.4 mph 28.8 mph 0.16 in Rain Heavy Rain
8:53 AM 45.0 °F 36.9 °F 37.0 °F 74% 29.08 in 5.0 mi East 20.7 mph 28.8 mph 0.07 in Rain Rain
9:53 AM 43.0 °F 34.8 °F 36.0 °F 76% 29.09 in 5.0 mi East 18.4 mph 23.0 mph 0.10 in Rain Rain
10:53 AM 43.0 °F 36.8 °F 37.0 °F 80% 29.12 in 4.0 mi NE 11.5 mph - 0.15 in Rain Heavy Rain
11:53 AM 43.0 °F 35.4 °F 37.9 °F 82% 29.09 in 10.0 mi ENE 16.1 mph 24.2 mph 0.11 in Rain Light Rain
12:53 PM 44.1 °F 37.7 °F 36.0 °F 73% 29.10 in 10.0 mi ENE 12.7 mph 28.8 mph 0.00 in   Partly Cloudy
1:53 PM 45.0 °F 38.5 °F 36.0 °F 71% 29.10 in 10.0 mi ENE 13.8 mph 20.7 mph N/A   Clear
2:53 PM 46.0 °F 41.9 °F 35.1 °F 66% 29.10 in 10.0 mi East 8.1 mph - N/A   Clear
3:53 PM 46.9 °F - 33.1 °F 59% 29.11 in 10.0 mi East 4.6 mph - N/A   Clear
4:53 PM 45.0 °F 41.8 °F 33.1 °F 63% 29.09 in 10.0 mi Variable 5.8 mph - N/A   Clear
5:53 PM 45.0 °F 39.7 °F 33.1 °F 63% 29.07 in 10.0 mi ESE 10.4 mph 17.3 mph N/A   Clear
6:53 PM 44.1 °F 39.0 °F 33.1 °F 65% 29.06 in 10.0 mi ESE 9.2 mph - N/A   Clear
7:53 PM 44.1 °F 36.8 °F 34.0 °F 68% 29.05 in 9.0 mi SE 16.1 mph 25.3 mph 0.00 in Rain Light Rain
8:53 PM 44.1 °F 37.7 °F 34.0 °F 68% 29.07 in 10.0 mi ESE 12.7 mph 20.7 mph 0.01 in Rain Light Rain
9:53 PM 42.1 °F 39.2 °F 34.0 °F 73% 29.07 in 10.0 mi East 4.6 mph - 0.01 in Rain Light Rain
10:53 PM 43.0 °F 39.5 °F 33.1 °F 68% 29.06 in 10.0 mi ESE 5.8 mph - 0.01 in   Mostly Cloudy
11:53 PM 43.0 °F 36.8 °F 32.0 °F 65% 29.06 in 10.0 mi ESE 11.5 mph - N/A   Overcast